• In Germany
  • List of Countries
  • For 7 days
  • Water Temperature
  • Satellite Maps
  • Weather Map
  • Weather Widgets
  • user-avatar
    Login

    Hourly Weather Gjirokaster

    Today, 25 April, Tuesday

    Time Temperature Precipitation Wind Pressure Humidity
    00:00 +2°C° 0 mm 2 mps 653 mmHg 92%
    01:00 +2°C° 0 mm 2 mps 653 mmHg 93%
    02:00 +2°C° 0 mm 2 mps 653 mmHg 94%
    03:00 +2°C° 0 mm 2 mps 652 mmHg 94%
    04:00 +2°C° 0 mm 2 mps 652 mmHg 94%
    05:00 +2°C° 0 mm 3 mps 653 mmHg 88%
    06:00 +4°C° 0 mm 3 mps 653 mmHg 82%
    07:00 +7°C° 0 mm 2 mps 654 mmHg 74%
    08:00 +9°C° 0 mm 3 mps 654 mmHg 66%
    09:00 +10°C° 0 mm 3 mps 655 mmHg 57%
    10:00 +11°C° 0 mm 3 mps 655 mmHg 49%
    11:00 +12°C° 0 mm 4 mps 655 mmHg 48%
    12:00 +12°C° 0 mm 4 mps 655 mmHg 46%
    13:00 +13°C° 0 mm 4 mps 655 mmHg 45%
    14:00 +12°C° 0 mm 4 mps 655 mmHg 47%
    15:00 +12°C° 0 mm 3 mps 654 mmHg 49%
    16:00 +11°C° 0 mm 3 mps 654 mmHg 52%
    17:00 +9°C° 0 mm 3 mps 653 mmHg 64%
    18:00 +5°C° 0 mm 3 mps 652 mmHg 76%
    19:00 +4°C° 0 mm 2 mps 652 mmHg 88%
    20:00 +3°C° 0 mm 2 mps 652 mmHg 88%
    21:00 +2°C° 0 mm 3 mps 652 mmHg 89%
    22:00 +2°C° 0 mm 3 mps 652 mmHg 90%
    23:00 +1°C° 0 mm 3 mps 652 mmHg 89%

    Tomorrow, 26 April, Wednesday

    Time Temperature Precipitation Wind Pressure Humidity
    00:00 +1°C° 0 mm 3 mps 652 mmHg 88%
    01:00 +2°C° 0 mm 2 mps 652 mmHg 86%
    02:00 +1°C° 0 mm 2 mps 651 mmHg 81%
    03:00 +1°C° 0 mm 2 mps 651 mmHg 76%
    04:00 +1°C° 0 mm 2 mps 651 mmHg 71%
    05:00 +2°C° 0 mm 3 mps 651 mmHg 64%
    06:00 +4°C° 0 mm 3 mps 652 mmHg 56%
    07:00 +8°C° 0 mm 3 mps 653 mmHg 49%
    08:00 +9°C° 0 mm 3 mps 653 mmHg 44%
    09:00 +11°C° 0 mm 3 mps 654 mmHg 39%
    10:00 +13°C° 0 mm 4 mps 654 mmHg 34%
    11:00 +13°C° 0 mm 4 mps 654 mmHg 34%
    12:00 +14°C° 0 mm 4 mps 654 mmHg 34%
    13:00 +14°C° 0 mm 4 mps 654 mmHg 34%
    14:00 +14°C° 0 mm 3 mps 654 mmHg 37%
    15:00 +13°C° 0 mm 3 mps 654 mmHg 39%
    16:00 +13°C° 0 mm 3 mps 653 mmHg 41%
    17:00 +10°C° 0 mm 3 mps 653 mmHg 53%
    18:00 +7°C° 0 mm 2 mps 652 mmHg 65%
    19:00 +4°C° 0 mm 2 mps 651 mmHg 77%
    20:00 +4°C° 0 mm 2 mps 651 mmHg 78%
    21:00 +4°C° 0 mm 2 mps 652 mmHg 78%
    22:00 +3°C° 0 mm 2 mps 652 mmHg 79%
    23:00 +3°C° 0 mm 2 mps 652 mmHg 78%

    Day after tomorrow, 27 April, Thursday

    Time Temperature Precipitation Wind Pressure Humidity
    00:00 +3°C° 0 mm 2 mps 651 mmHg 77%
    01:00 +2°C° 0 mm 2 mps 651 mmHg 77%
    02:00 +2°C° 0 mm 2 mps 651 mmHg 74%
    03:00 +2°C° 0 mm 2 mps 651 mmHg 72%
    04:00 +2°C° 0 mm 2 mps 650 mmHg 69%
    05:00 +5°C° 0 mm 2 mps 651 mmHg 61%
    06:00 +7°C° 0 mm 2 mps 652 mmHg 52%
    07:00 +10°C° 0 mm 2 mps 653 mmHg 43%
    08:00 +13°C° 0 mm 2 mps 653 mmHg 39%
    09:00 +14°C° 0 mm 2 mps 654 mmHg 36%
    10:00 +16°C° 0 mm 2 mps 654 mmHg 32%
    11:00 +17°C° 0 mm 3 mps 654 mmHg 32%
    12:00 +17°C° 0 mm 3 mps 654 mmHg 32%
    13:00 +18°C° 0 mm 3 mps 654 mmHg 32%
    14:00 +17°C° 0 mm 3 mps 654 mmHg 35%
    15:00 +17°C° 0 mm 3 mps 653 mmHg 37%
    16:00 +16°C° 0 mm 3 mps 653 mmHg 39%
    17:00 +13°C° 0 mm 2 mps 652 mmHg 49%
    18:00 +9°C° 0 mm 2 mps 652 mmHg 60%
    19:00 +6°C° 0 mm 2 mps 651 mmHg 71%
    20:00 +6°C° 0 mm 2 mps 651 mmHg 70%
    21:00 +6°C° 0 mm 2 mps 651 mmHg 70%
    22:00 +5°C° 0 mm 2 mps 651 mmHg 69%
    23:00 +5°C° 0 mm 2 mps 651 mmHg 65%

    28 April, Friday

    Time Temperature Precipitation Wind Pressure Humidity
    00:00 +5°C° 0 mm 2 mps 651 mmHg 61%
    01:00 +5°C° 0 mm 3 mps 651 mmHg 57%
    02:00 +4°C° 0 mm 3 mps 651 mmHg 55%
    03:00 +4°C° 0 mm 3 mps 650 mmHg 52%
    04:00 +4°C° 0 mm 3 mps 650 mmHg 50%
    05:00 +7°C° 0 mm 3 mps 651 mmHg 46%
    06:00 +9°C° 0 mm 3 mps 651 mmHg 43%
    07:00 +11°C° 0 mm 3 mps 652 mmHg 39%
    08:00 +13°C° 0 mm 3 mps 652 mmHg 37%
    09:00 +16°C° 0 mm 3 mps 653 mmHg 34%
    10:00 +18°C° 0 mm 4 mps 653 mmHg 31%
    11:00 +18°C° 0 mm 4 mps 653 mmHg 32%
    12:00 +18°C° 0 mm 4 mps 653 mmHg 32%
    13:00 +19°C° 0 mm 4 mps 653 mmHg 32%
    14:00 +18°C° 0 mm 4 mps 653 mmHg 35%
    15:00 +17°C° 0 mm 4 mps 652 mmHg 38%
    16:00 +16°C° 0 mm 3 mps 652 mmHg 41%
    17:00 +13°C° 0 mm 3 mps 651 mmHg 47%
    18:00 +11°C° 0 mm 3 mps 651 mmHg 54%
    19:00 +9°C° 0 mm 3 mps 650 mmHg 60%
    20:00 +8°C° 0 mm 3 mps 650 mmHg 59%
    21:00 +8°C° 0 mm 3 mps 650 mmHg 59%
    22:00 +6°C° 0 mm 4 mps 650 mmHg 58%
    23:00 +7°C° 0 mm 3 mps 650 mmHg 56%

    29 April, Saturday

    Time Temperature Precipitation Wind Pressure Humidity
    00:00 +7°C° 0 mm 3 mps 650 mmHg 54%
    01:00 +7°C° 0 mm 3 mps 649 mmHg 52%
    02:00 +7°C° 0 mm 3 mps 649 mmHg 52%
    03:00 +7°C° 0 mm 3 mps 649 mmHg 51%
    04:00 +7°C° 0 mm 3 mps 649 mmHg 50%
    05:00 +8°C° 0 mm 3 mps 649 mmHg 48%
    06:00 +10°C° 0 mm 3 mps 650 mmHg 47%
    07:00 +12°C° 0 mm 3 mps 650 mmHg 45%
    08:00 +13°C° 0 mm 3 mps 651 mmHg 41%
    09:00 +16°C° 0 mm 3 mps 651 mmHg 37%
    10:00 +17°C° 0 mm 4 mps 651 mmHg 33%
    11:00 +17°C° 0 mm 4 mps 651 mmHg 33%
    12:00 +18°C° 0 mm 4 mps 651 mmHg 33%
    13:00 +18°C° 0 mm 4 mps 651 mmHg 33%
    14:00 +18°C° 0 mm 3 mps 650 mmHg 36%
    15:00 +17°C° 0 mm 3 mps 650 mmHg 40%
    16:00 +16°C° 0 mm 2 mps 649 mmHg 44%
    17:00 +14°C° 0 mm 2 mps 649 mmHg 53%
    18:00 +12°C° 0 mm 2 mps 649 mmHg 61%
    19:00 +8°C° 0 mm 2 mps 648 mmHg 70%
    20:00 +8°C° 0 mm 2 mps 648 mmHg 70%
    21:00 +8°C° 0 mm 2 mps 649 mmHg 70%
    22:00 +8°C° 0 mm 2 mps 649 mmHg 70%
    23:00 +8°C° 0 mm 2 mps 649 mmHg 70%

    30 April, Sunday

    Time Temperature Precipitation Wind Pressure Humidity
    00:00 +8°C° 0 mm 2 mps 648 mmHg 70%
    01:00 +8°C° 0 mm 2 mps 648 mmHg 70%
    02:00 +8°C° 0 mm 2 mps 648 mmHg 70%
    03:00 +7°C° 0 mm 2 mps 648 mmHg 71%
    04:00 +7°C° 0 mm 2 mps 648 mmHg 71%
    05:00 +9°C° 0 mm 2 mps 648 mmHg 68%
    06:00 +10°C° 0 mm 2 mps 649 mmHg 64%
    07:00 +12°C° 0 mm 2 mps 649 mmHg 61%
    08:00 +14°C° 0 mm 2 mps 650 mmHg 54%
    09:00 +16°C° 0 mm 2 mps 650 mmHg 47%
    10:00 +17°C° 0 mm 2 mps 650 mmHg 39%
    11:00 +17°C° 0.1 mm 3 mps 650 mmHg 42%
    12:00 +17°C° 0.1 mm 3 mps 650 mmHg 45%
    13:00 +17°C° 0.1 mm 3 mps 650 mmHg 47%
    14:00 +16°C° 0.4 mm 3 mps 650 mmHg 54%
    15:00 +15°C° 0.4 mm 2 mps 649 mmHg 61%
    16:00 +14°C° 0.4 mm 2 mps 649 mmHg 68%
    17:00 +12°C° 0.2 mm 2 mps 649 mmHg 73%
    18:00 +10°C° 0.2 mm 2 mps 649 mmHg 78%
    19:00 +9°C° 0.2 mm 2 mps 648 mmHg 83%
    20:00 +8°C° 0 mm 2 mps 648 mmHg 85%
    21:00 +8°C° 0 mm 2 mps 648 mmHg 86%
    22:00 +7°C° 0 mm 2 mps 648 mmHg 88%
    23:00 +7°C° 0 mm 2 mps 648 mmHg 89%
    Show more